{"data":{"norad_id":51755,"intl_designator":"2022-016AT","name":"STARLINK-3460","alt_names":[],"object_type":"PAYLOAD","status":"ACTIVE","operator":null,"country":"US","launch_date":"2022-02-21","launch_site_code":"AFETR","launch_vehicle":null,"mission":null,"orbit_class":"UNKNOWN","rcs_meters":null,"size_class":null,"mass_kg":null,"dimensions":null,"purposes":["comms"],"wikipedia_slug":null,"has_3d_model":false,"image_url":null,"decayed_at":null,"tle_current":{"epoch":"2026-09-20T04:42:35.669088Z","epoch_age_seconds":77942,"freshness":"FRESH","line1":"1 51755U 22016AT  26263.19624617  .00010802  00000+0  33032-3 0  9993","line2":"2 51755  53.1580 141.4912 0001086 113.6574 246.4542 15.34404399253268","mean_motion":15.34404399,"eccentricity":0.0001086,"inclination_deg":53.158,"raan_deg":141.4912,"arg_perigee_deg":113.6574,"mean_anomaly_deg":246.4542,"bstar":0.00033032,"rev_number":25326,"period_min":93.847489028217,"perigee_km":461.94725165312,"apogee_km":463.43307931347,"semimajor_km":6840.8271654833,"source":"CELESTRAK","updated_at":"2026-09-20T09:00:39.934649Z"}}}